COSMOS 733

Satellite information

Favourite Embed

Satellite Type and Status

PAYLOADIN ORBIT

Key statistics

Satellite COSMOS 733 at a glance.

Uptime

18423

Days in orbit

Revolutions

≈ 12.4

Per day

Orbit

LEO

Low Earth Orbit

Inclination

74.0

Latest

Satellite identification and parameters

Extended collection of information and parameters for COSMOS 733.

Object identification

Identified? True

Debris? False

Object name: COSMOS 733

International designator: 1975-045B

Object number (NORAD): 7822

Object ID (CCSDS): 7822

Country: COMMONWEALTH OF INDEPENDENT STATES (CIS)

Current information (Y/N): Y

RCS size: MEDIUM

Orbital parameters

Period: 116.238 minutes

Inclination: 74.0212 deg

SMA: 7889.67 km

Apoapsis: 1553.37 km

Periapsis: 1469.701 km

RAAN: 33.0608 deg

Eccentricy: 0.0053024

Argument of periapsis: 175.225 deg

Mean anomaly: 195.876 deg

Mean motion: 12.3883788 rev/day

Mean motion (dot): -0.0000002 rev/day2

B* drag term: -0.000035154 1/REarth

Two-line elements (TLE)

Creation date: Nov. 2, 2025, 3:46 p.m.

Reference frame: TEME

Reference center: EARTH

Epoch: Nov. 2, 2025, 11:49 a.m. UTC

TLE line 0: 0 COSMOS 733

TLE line 1: 1 7822U 75045B 25306.49270426 -.00000020 00000-0 -35154-4 0 9996

TLE line 2: 2 7822 74.0212 33.0608 0053024 175.2250 195.8760 12.38837880280939

Live tracking on map

Real-time ground track for satellite COSMOS 733.

In-orbit conjunctions

A list of the most updated potential collisions computed for object COSMOS 733.

Target Orbit TCA Probability of collision Miss distance Type
SL-14 DEB LEO 2025-01-13 10:17:49 0.0007863416 395.0 (m) DEBRIS
THORAD DELTA 1 DEB SSO 2024-11-14 08:41:36 0.0002418963 389.0 (m) DEBRIS

Associated space launch

Military communications satellites

COSMOS 733 was lifted into orbit during the mission ‘Kosmos-3M | Strela-1M 89-96’, on board a Kosmos-3M space rocket.

The launch took place on May 28, 1975, 12:25 a.m. from 132/1 (132L).

For more information about the launch, click the button.

Launch to space Kosmos-3M | Strela-1M 89-96
Kosmos-3M | Strela-1M 89-96

Agency: N/A

Status: Launch Successful

Launch date: May 28, 1975, 12:25 a.m. UTC

Rocket: Kosmos-3M

Launch pad: 132/1 (132L)

Location: Plesetsk Cosmodrome, Russian Federation

...

Latest news about this satellite

There are no fresh news available about this satellite. Check back as we update our databases every day.


Newsletter sign-up

Weekly statistics, charts and insights to help you stay on top of the space industry.